Location: ???? ??
(36.0534°N, 43.5630°E)
Time: 12:16:14
(UTC+00:00)

NOSS 3-4 (C) - Pass Details

Date: 18 September 2019
Orbit: 913 x 1299 km, 63.4° (Epoch: 21 September)

Event Time Altitude Azimuth Distance (km) Brightness Sun altitude
Rises 16:15:13 0° 334° (NNW) 3,863 7.2 -14.0°
Reaches altitude 10° 16:17:59 10° 342° (NNW) 2,963 6.4 -14.6°
Maximum altitude 16:24:37 40° 51° (NE) 1,655 4.4 -15.9°
Enters shadow 16:28:42 24° 104° (ESE) 2,299 4.8 -16.7°
